Location: Écuvilly
(49.6505°N, 2.9206°E)
Time: 17:38:50
(UTC+00:00)

SMAP - Pass Details

Date: 17 November 2025
Orbit: 681 x 683 km, 98.1° (Epoch: 09 December)

Event Time Altitude Azimuth Distance (km) Brightness Sun altitude
Rises 17:35:51 0° 182° (S) 3,034 6.6 -14.9°
Reaches altitude 10° 17:38:10 10° 188° (S) 2,123 5.9 -15.2°
Maximum altitude 17:42:36 45° 261° (W) 935 4.3 -16.0°
Drops below altitude 10° 17:47:06 10° 335° (NNW) 2,138 5.8 -16.7°
Sets 17:49:26 0° 341° (NNW) 3,058 6.5 -17.0°
